Florala, AL

9:51 AM CDT on August 17, 2017 (GMT -0500)
Florala

Weather History for K0J4 - May, 2013

Change the Weather History Date:

Friday, May 3, 2013

  Actual Average (KCEW) Record (KCEW)
Temperature  
Mean Temperature 68 °F -  
Max Temperature 71 °F 82 °F 91 °F (1951)
Min Temperature 64 °F 56 °F 43 °F (1999)
Cooling Degree Days 2    
Growing Degree Days 18 (Base 50)    
Moisture  
Dew Point 62 °F    
Average Humidity 83    
Maximum Humidity 94    
Minimum Humidity 63    
Precipitation  
Precipitation 0.06 in - - ()
Sea Level Pressure  
Sea Level Pressure 29.89 in    
Wind  
Wind Speed 9 mph (East)    
Max Wind Speed 15 mph    
Max Gust Speed 23 mph    
Visibility 8 miles    
Events      
Averages and records for this station are not official NWS values.
T = Trace of Precipitation, MM = Missing Value Source: NWS Daily Summary

Daily Weather History Graph

Daily Weather History Graph

Search for Another Location

Airport or City:

Trip Planner

Search our weather history database for the weather conditions in past years. The results will help you decide how hot, cold, wet, or windy it might be!

Date:

Astronomy

May. 03, 2013 Rise Set
Actual Time 5:58 AM CDT 7:25 PM CDT
Civil Twilight 5:33 AM CDT 7:51 PM CDT
Nautical Twilight 5:02 AM CDT 8:22 PM CDT
Astronomical Twilight 4:30 AM CDT 8:54 PM CDT
Moon 1:57 AM CDT (5/3) 1:43 PM CDT (5/3)
Length of Visible Light 14h 18m
Length of Day
13h 27m
Last Quarter, 37% of the Moon is Illuminated
May 3
Last Quarter
May 9
New
May 17
First Quarter
May 24
Full
May 31
Last Quarter

Hourly Weather History & Observations

Time (CDT) Temp. Dew Point Humidity Pressure Visibility Wind Dir Wind Speed Gust Speed Precip Events Conditions
12:31 AM 68.0 °F 62.6 °F 83% 29.97 in 10.0 mi ENE 8.1 mph - N/A   Overcast
12:58 AM 66.9 °F 63.0 °F 87% 29.96 in 10.0 mi ENE 9.2 mph - N/A   Overcast
1:23 AM 66.2 °F 62.6 °F 88% 29.95 in 10.0 mi ENE 9.2 mph - N/A   Mostly Cloudy
1:58 AM 66.0 °F 61.0 °F 84% 29.92 in 10.0 mi ENE 6.9 mph - N/A   Mostly Cloudy
2:58 AM 66.0 °F 61.0 °F 84% 29.92 in 10.0 mi ENE 8.1 mph 18.4 mph N/A   Overcast
3:33 AM 66.2 °F 60.8 °F 83% 29.92 in 10.0 mi NE 6.9 mph - N/A   Overcast
3:58 AM 64.9 °F 61.0 °F 87% 29.92 in 10.0 mi NE 9.2 mph - N/A   Overcast
4:34 AM 64.4 °F 60.8 °F 88% 29.92 in 10.0 mi ENE 10.4 mph - N/A   Overcast
4:58 AM 64.9 °F 60.1 °F 84% 29.91 in 10.0 mi ENE 9.2 mph - N/A   Overcast
5:25 AM 64.4 °F 60.8 °F 88% 29.93 in 6.0 mi ENE 8.1 mph - N/A   Overcast
5:58 AM 64.0 °F 61.0 °F 90% 29.92 in 8.0 mi ENE 8.1 mph - N/A   Overcast
6:58 AM 64.0 °F 61.0 °F 90% 29.92 in 10.0 mi NE 11.5 mph - N/A   Overcast
7:58 AM 68.0 °F 60.1 °F 76% 29.92 in 10.0 mi ENE 15.0 mph 23.0 mph N/A   Mostly Cloudy
8:10 AM 68.0 °F 60.8 °F 78% 29.92 in 10.0 mi ENE 15.0 mph 21.9 mph N/A   Mostly Cloudy
8:58 AM 68.0 °F 60.1 °F 76% 29.92 in 10.0 mi ENE 10.4 mph 19.6 mph N/A   Overcast
9:58 AM 69.1 °F 59.0 °F 70% 29.92 in 10.0 mi East 11.5 mph 21.9 mph N/A   Overcast
10:58 AM 70.0 °F 60.1 °F 71% 29.92 in 10.0 mi East 11.5 mph 18.4 mph N/A   Overcast
11:03 AM 71.6 °F 59.0 °F 64% 29.93 in 10.0 mi East 11.5 mph 17.3 mph N/A   Overcast
11:13 AM 69.8 °F 59.0 °F 68% 29.93 in 10.0 mi ENE 11.5 mph 20.7 mph N/A   Overcast
11:25 AM 69.8 °F 60.8 °F 73% 29.93 in 10.0 mi East 4.6 mph - N/A   Overcast
11:29 AM 69.8 °F 60.8 °F 73% 29.93 in 10.0 mi East 12.7 mph 17.3 mph N/A   Overcast
11:37 AM 71.6 °F 59.0 °F 64% 29.92 in 10.0 mi East 8.1 mph 17.3 mph N/A   Overcast
11:58 AM 71.1 °F 57.9 °F 63% 29.91 in 10.0 mi East 11.5 mph 20.7 mph N/A   Overcast
12:42 PM 71.6 °F 60.8 °F 69% 29.91 in 8.0 mi East 9.2 mph - N/A   Overcast
12:58 PM 70.0 °F 60.1 °F 71% 29.90 in 10.0 mi ENE 11.5 mph - N/A   Overcast
1:16 PM 71.6 °F 60.8 °F 69% 29.90 in 10.0 mi ENE 11.5 mph - N/A   Overcast
1:22 PM 71.6 °F 60.8 °F 69% 29.90 in 10.0 mi ENE 11.5 mph - N/A   Overcast
1:58 PM 70.0 °F 60.1 °F 71% 29.89 in 10.0 mi East 9.2 mph 18.4 mph N/A   Overcast
2:58 PM 70.0 °F 61.0 °F 73% 29.86 in 10.0 mi East 11.5 mph 20.7 mph N/A   Overcast
3:27 PM 71.6 °F 60.8 °F 69% 29.86 in 10.0 mi East 11.5 mph - N/A   Overcast
3:42 PM 69.8 °F 60.8 °F 73% 29.86 in 10.0 mi ENE 9.2 mph - N/A   Overcast
3:46 PM 69.8 °F 62.6 °F 78% 29.86 in 10.0 mi East 12.7 mph 20.7 mph N/A   Overcast
3:58 PM 69.1 °F 62.1 °F 78% 29.85 in 9.0 mi East 12.7 mph - N/A   Overcast
4:57 PM 68.0 °F 64.0 °F 87% 29.85 in 5.0 mi East 9.2 mph - N/A   Overcast
5:14 PM 68.0 °F 62.6 °F 83% 29.86 in 5.0 mi East 8.1 mph - N/A   Haze
5:58 PM 66.9 °F 64.0 °F 90% 29.84 in 9.0 mi East 6.9 mph - N/A   Overcast
6:13 PM 66.2 °F 64.4 °F 94% 29.85 in 4.0 mi East 10.4 mph - N/A   Overcast
6:24 PM 66.2 °F 64.4 °F 94% 29.86 in 2.5 mi East 4.6 mph - N/A   Overcast
6:28 PM 66.2 °F 64.4 °F 94% 29.86 in 2.5 mi East 5.8 mph - N/A   Overcast
6:30 PM 66.2 °F 64.4 °F 94% 29.86 in 3.0 mi East 5.8 mph - N/A   Overcast
6:38 PM 66.2 °F 64.4 °F 94% 29.86 in 4.0 mi East 5.8 mph - N/A   Overcast
6:58 PM 66.0 °F 63.0 °F 90% 29.86 in 3.0 mi East 6.9 mph - N/A   Overcast
7:08 PM 64.4 °F 62.6 °F 94% 29.87 in 2.5 mi East 6.9 mph - N/A   Overcast
7:20 PM 64.4 °F 62.6 °F 94% 29.87 in 3.0 mi ENE 6.9 mph - 0.01 in   Overcast
7:58 PM 64.9 °F 63.0 °F 93% 29.86 in 4.0 mi East 4.6 mph - 0.02 in   Overcast
8:05 PM 64.4 °F 62.6 °F 94% 29.87 in 2.5 mi East 5.8 mph - 0.02 in   Overcast
8:21 PM 64.4 °F 62.6 °F 94% 29.87 in 3.0 mi East 6.9 mph - 0.03 in   Overcast
8:58 PM 64.9 °F 62.1 °F 90% 29.87 in 10.0 mi ESE 9.2 mph - 0.03 in   Overcast
9:02 PM 64.4 °F 62.6 °F 94% 29.88 in 10.0 mi SE 6.9 mph - N/A   Overcast
9:09 PM 64.4 °F 62.6 °F 94% 29.88 in 10.0 mi SE 8.1 mph 23.0 mph N/A   Overcast
9:21 PM 64.4 °F 60.8 °F 88% 29.88 in 10.0 mi ESE 9.2 mph 20.7 mph N/A   Overcast
9:25 PM 64.4 °F 60.8 °F 88% 29.88 in 10.0 mi ESE 10.4 mph 18.4 mph N/A   Overcast
9:40 PM 64.4 °F 60.8 °F 88% 29.88 in 10.0 mi ESE 10.4 mph 19.6 mph N/A   Overcast
9:58 PM 64.0 °F 61.0 °F 90% 29.87 in 10.0 mi SSE 8.1 mph - N/A   Overcast
10:58 PM 64.0 °F 61.0 °F 90% 29.86 in 10.0 mi SE 4.6 mph - N/A   Overcast
11:08 PM 64.4 °F 60.8 °F 88% 29.87 in 10.0 mi SSE 5.8 mph - N/A   Overcast
11:58 PM 64.0 °F 62.1 °F 93% 29.85 in 5.0 mi ESE 3.5 mph - 0.01 in   Overcast